Weather History for Holdrege, NE

Change the Weather History Date:

Saturday, January 25, 2014

  Actual Average Record
Temperature  
Mean Temperature 44 °F -  
Max Temperature 51 °F 39 °F 68 °F (1981)
Min Temperature 37 °F 15 °F -10 °F (1957)
Degree Days  
Heating Degree Days 21    
Moisture  
Dew Point 30 °F    
Average Humidity 57    
Maximum Humidity 71    
Minimum Humidity 45    
Precipitation  
Precipitation 0.00 in - - ()
Sea Level Pressure  
Sea Level Pressure 29.92 in    
Wind  
Wind Speed 11 mph (WNW)    
Max Wind Speed 21 mph    
Max Gust Speed 28 mph    
Visibility 10 miles    
Events      
Averages and records for this station are not official NWS values.
T = Trace of Precipitation, MM = Missing Value Source: NWS Daily Summary

Daily Weather History Graph

Daily Weather History Graph

Search for Another Location

Airport:

Trip Planner

Search our weather history database for the weather conditions in past years. The results will help you decide how hot, cold, wet, or windy it might be!

Date:

Astronomy

Jan. 25, 2014 Rise Set
Actual Time 7:52 AM CST 5:47 PM CST
Civil Twilight 7:23 AM CST 6:16 PM CST
Nautical Twilight 6:50 AM CST 6:49 PM CST
Astronomical Twilight 6:18 AM CST 7:21 PM CST
Moon 2:26 AM CST (1/25) 12:48 PM CST (1/25)
Length of Visible Light 10h 53m
Length of Day
9h 54m
Waning Crescent, 34% of the Moon is Illuminated
Jan 25
Waning Crescent
Jan 30
New
Feb 6
First Quarter
Feb 14
Full
Feb 22
Last Quarter

Hourly Weather History & Observations

Time (CST) Temp. Windchill Dew Point Humidity Pressure Visibility Wind Dir Wind Speed Gust Speed Precip Events Conditions
12:15 AM 46.9 °F - 30.0 °F 52% 29.93 in 10.0 mi NW 13.8 mph 20.7 mph N/A   Scattered Clouds
12:35 AM 42.6 °F 37.2 °F 28.9 °F 58% 29.93 in 10.0 mi NW 9.2 mph - N/A   Clear
12:55 AM 41.7 °F 36.1 °F 28.8 °F 60% 29.94 in 10.0 mi NW 9.2 mph - N/A   Mostly Cloudy
1:15 AM 42.4 °F 37.5 °F 29.1 °F 59% 29.94 in 10.0 mi NW 8.1 mph - N/A   Overcast
1:35 AM 44.6 °F 39.2 °F 29.8 °F 56% 29.94 in 10.0 mi NNW 10.4 mph - N/A   Overcast
1:55 AM 45.0 °F 40.1 °F 30.0 °F 56% 29.95 in 10.0 mi NW 9.2 mph - N/A   Overcast
2:15 AM 43.9 °F 38.8 °F 30.2 °F 59% 29.95 in 10.0 mi NW 9.2 mph - N/A   Overcast
2:35 AM 42.3 °F 36.8 °F 30.2 °F 62% 29.95 in 10.0 mi NW 9.2 mph - N/A   Overcast
2:55 AM 44.6 °F 38.4 °F 31.6 °F 60% 29.95 in 10.0 mi NW 12.7 mph 17.3 mph N/A   Overcast
3:15 AM 44.8 °F 39.4 °F 31.6 °F 60% 29.95 in 10.0 mi NW 10.4 mph - N/A   Mostly Cloudy
3:35 AM 43.2 °F 37.9 °F 31.6 °F 64% 29.95 in 10.0 mi NW 9.2 mph - N/A   Mostly Cloudy
3:55 AM 43.7 °F 38.6 °F 32.0 °F 63% 29.96 in 10.0 mi NW 9.2 mph - N/A   Overcast
4:15 AM 45.0 °F 38.9 °F 32.4 °F 61% 29.97 in 10.0 mi WNW 12.7 mph - N/A   Overcast
4:35 AM 45.5 °F 39.9 °F 32.0 °F 59% 29.96 in 10.0 mi WNW 11.5 mph - N/A   Overcast
4:55 AM 45.0 °F 40.1 °F 32.0 °F 60% 29.96 in 10.0 mi WNW 9.2 mph - N/A   Overcast
5:15 AM 42.8 °F 38.6 °F 30.9 °F 63% 29.96 in 10.0 mi WNW 6.9 mph - N/A   Mostly Cloudy
5:35 AM 41.4 °F 35.7 °F 30.0 °F 64% 29.96 in 10.0 mi WNW 9.2 mph - N/A   Scattered Clouds
5:55 AM 41.0 °F 33.9 °F 28.4 °F 61% 29.97 in 10.0 mi WNW 12.7 mph 17.3 mph N/A   Scattered Clouds
6:15 AM 39.2 °F 32.5 °F 26.6 °F 61% 29.98 in 10.0 mi WNW 10.4 mph - N/A   Scattered Clouds
6:35 AM 39.2 °F 32.5 °F 27.3 °F 62% 29.98 in 10.0 mi West 10.4 mph - N/A   Scattered Clouds
6:55 AM 39.2 °F 32.5 °F 27.5 °F 63% 29.99 in 10.0 mi WNW 10.4 mph - N/A   Clear
7:15 AM 38.1 °F 31.7 °F 28.0 °F 67% 30.00 in 10.0 mi WNW 9.2 mph - N/A   Clear
7:35 AM 39.2 °F 33.0 °F 29.1 °F 67% 30.01 in 10.0 mi NW 9.2 mph - N/A   Mostly Cloudy
7:55 AM 38.8 °F 34.6 °F 29.5 °F 69% 30.01 in 10.0 mi NW 5.8 mph - N/A   Overcast
8:15 AM 37.6 °F 33.1 °F 28.9 °F 71% 30.01 in 10.0 mi WNW 5.8 mph - N/A   Overcast
8:35 AM 41.0 °F 35.2 °F 32.0 °F 70% 30.03 in 10.0 mi NNW 9.2 mph - N/A   Overcast
8:55 AM 42.4 °F 35.7 °F 32.5 °F 68% 30.03 in 10.0 mi North 12.7 mph - N/A   Overcast
9:15 AM 43.5 °F 37.9 °F 33.6 °F 68% 30.04 in 10.0 mi North 10.4 mph - N/A   Mostly Cloudy
9:35 AM 43.3 °F 35.5 °F 32.0 °F 64% 30.06 in 10.0 mi NNW 17.3 mph 23.0 mph N/A   Overcast
9:55 AM 43.3 °F 35.0 °F 31.5 °F 63% 30.06 in 10.0 mi North 19.6 mph 27.6 mph N/A   Overcast
10:15 AM 43.2 °F 35.9 °F 31.1 °F 62% 30.07 in 10.0 mi North 15.0 mph 24.2 mph N/A   Overcast
10:35 AM 43.5 °F 35.2 °F 30.9 °F 61% 30.08 in 10.0 mi North 19.6 mph 27.6 mph N/A   Overcast
10:55 AM 44.6 °F 37.8 °F 30.7 °F 58% 30.08 in 10.0 mi NNW 15.0 mph 21.9 mph N/A   Overcast
11:15 AM 45.7 °F 38.6 °F 30.6 °F 56% 30.08 in 10.0 mi NNW 17.3 mph 23.0 mph N/A   Overcast
11:35 AM 46.0 °F 39.3 °F 30.4 °F 54% 30.08 in 10.0 mi NNW 16.1 mph 20.7 mph N/A   Scattered Clouds
11:55 AM 46.6 °F - 30.4 °F 53% 30.07 in 10.0 mi NNW 13.8 mph 17.3 mph N/A   Clear
12:15 PM 47.5 °F - 30.4 °F 52% 30.06 in 10.0 mi NW 16.1 mph 23.0 mph N/A   Scattered Clouds
12:35 PM 47.8 °F - 30.7 °F 52% 30.04 in 10.0 mi NW 18.4 mph 25.3 mph N/A   Scattered Clouds
12:55 PM 48.7 °F - 30.6 °F 50% 30.02 in 10.0 mi NNW 15.0 mph 23.0 mph N/A   Scattered Clouds
1:15 PM 48.7 °F - 30.4 °F 49% 30.01 in 10.0 mi NW 13.8 mph 26.5 mph N/A   Scattered Clouds
1:35 PM 49.5 °F - 30.4 °F 48% 30.00 in 10.0 mi NW 12.7 mph - N/A   Scattered Clouds
1:55 PM 51.3 °F - 30.4 °F 45% 29.98 in 10.0 mi NW 12.7 mph 19.6 mph N/A   Scattered Clouds
2:15 PM 50.2 °F - 30.2 °F 46% 29.97 in 10.0 mi WNW 9.2 mph 17.3 mph N/A   Clear
2:35 PM 51.3 °F - 30.6 °F 45% 29.95 in 10.0 mi West 11.5 mph 16.1 mph N/A   Scattered Clouds
2:55 PM 51.6 °F - 30.9 °F 45% 29.94 in 10.0 mi West 15.0 mph 19.6 mph N/A   Scattered Clouds
3:15 PM 51.4 °F - 31.1 °F 46% 29.93 in 10.0 mi West 10.4 mph - N/A   Scattered Clouds
3:35 PM 51.4 °F - 31.1 °F 46% 29.93 in 10.0 mi West 11.5 mph - N/A   Scattered Clouds
3:55 PM 51.8 °F - 31.6 °F 46% 29.92 in 10.0 mi West 10.4 mph 17.3 mph N/A   Clear
4:15 PM 51.6 °F - 31.8 °F 47% 29.91 in 10.0 mi SW 8.1 mph - N/A   Clear
4:35 PM 51.8 °F - 32.0 °F 47% 29.90 in 10.0 mi SW 6.9 mph - N/A   Clear
4:55 PM 51.8 °F - 32.0 °F 47% 29.88 in 10.0 mi WSW 9.2 mph - N/A   Clear
5:15 PM 51.3 °F - 31.8 °F 47% 29.87 in 10.0 mi SW 6.9 mph - N/A   Clear
5:35 PM 47.8 °F - 30.9 °F 52% 29.86 in 10.0 mi SW 6.9 mph - N/A   Clear
5:55 PM 45.0 °F 41.2 °F 30.2 °F 56% 29.86 in 10.0 mi SW 6.9 mph - N/A   Clear
6:15 PM 42.8 °F 38.6 °F 29.5 °F 59% 29.85 in 10.0 mi SSW 6.9 mph - N/A   Clear
6:35 PM 41.0 °F 35.2 °F 28.9 °F 62% 29.84 in 10.0 mi SSW 9.2 mph - N/A   Clear
6:55 PM 40.6 °F 34.8 °F 29.3 °F 64% 29.83 in 10.0 mi SSW 9.2 mph - N/A   Clear
7:15 PM 40.3 °F 35.5 °F 29.5 °F 65% 29.82 in 10.0 mi SSW 6.9 mph - N/A   Clear
7:35 PM 41.0 °F 34.7 °F 29.3 °F 63% 29.80 in 10.0 mi SSW 10.4 mph - N/A   Clear
7:55 PM 39.7 °F 33.7 °F 29.1 °F 66% 29.79 in 10.0 mi SW 9.2 mph - N/A   Clear
8:15 PM 41.0 °F 34.7 °F 29.3 °F 63% 29.78 in 10.0 mi SW 10.4 mph - N/A   Clear
8:35 PM 41.2 °F 34.1 °F 28.6 °F 61% 29.77 in 10.0 mi SSW 12.7 mph - N/A   Clear
8:55 PM 41.4 °F 34.0 °F 27.7 °F 58% 29.76 in 10.0 mi SW 13.8 mph 19.6 mph N/A   Clear
9:15 PM 41.4 °F 33.3 °F 27.1 °F 57% 29.75 in 10.0 mi SW 16.1 mph - N/A   Clear
9:35 PM 41.0 °F 34.3 °F 26.6 °F 57% 29.74 in 10.0 mi SW 11.5 mph - N/A   Clear
9:55 PM 39.9 °F 32.5 °F 26.2 °F 58% 29.72 in 10.0 mi SW 12.7 mph - N/A   Clear
10:15 PM 40.6 °F 33.0 °F 25.9 °F 56% 29.72 in 10.0 mi WSW 13.8 mph - N/A   Clear
10:35 PM 42.8 °F 34.8 °F 25.7 °F 51% 29.71 in 10.0 mi WSW 17.3 mph 26.5 mph N/A   Clear
10:55 PM 42.4 °F 33.8 °F 24.8 °F 50% 29.71 in 10.0 mi WSW 19.6 mph 25.3 mph N/A   Clear
11:15 PM 41.5 °F 32.9 °F 24.8 °F 51% 29.72 in 10.0 mi West 18.4 mph 23.0 mph N/A   Clear
11:35 PM 41.7 °F 32.6 °F 24.8 °F 51% 29.71 in 10.0 mi West 20.7 mph - N/A   Clear
11:55 PM 41.2 °F 33.0 °F 24.8 °F 52% 29.71 in 10.0 mi West 16.1 mph - N/A   Clear